Vorticity
2 3 2 3 4 5 6 6 5 9 4 0 2 6 9 6 3 7 4 7 7 5 1 -5 1 8 8 7 6 7 5 0 6 4 2 5 -1 1 7 8 6 3 1 5 4
5 6 8 10 11 11 9 9 9 9 4 1 1 9 7 2 6 10 3 0 1 7 11 1 -0 5 3 11 8 8 4 5 3 5 5 2 5 -3 -0 6 9 6 6 3 4
9 9 8 10 9 9 12 11 11 6 1 3 5 7 4 5 11 6 5 5 1 3 4 5 7 2 7 5 6 5 5 3 6 7 6 4 1 5 0 -0 5 10 5 3 3
11 10 7 7 8 8 9 8 9 2 5 4 3 8 10 11 7 3 4 5 2 4 6 7 5 5 8 10 9 6 7 4 3 3 5 4 3 9 4 -1 4 4 11 5 7
11 8 7 7 8 10 8 8 5 5 9 9 9 10 8 7 6 6 4 4 6 6 6 8 5 4 4 5 5 17 31 32 26 14 8 4 5 2 5 10 3 9 5 9 6
10 10 10 9 11 11 12 11 10 6 9 10 10 7 8 4 3 2 4 7 6 8 10 6 4 4 8 11 53 63 42 45 46 55 52 31 9 9 -5 7 9 9 6 9 7
8 8 8 9 9 9 7 6 9 10 6 8 9 6 5 2 1 7 9 7 8 8 5 4 3 8 27 57 31 20 22 19 29 34 41 38 35 15 -11 15 15 9 8 6 7
7 8 8 7 6 6 7 7 8 7 7 8 5 5 3 3 7 8 7 9 11 6 5 6 10 37 44 26 16 18 12 22 30 13 45 31 42 42 25 12 12 7 7 7 8
9 7 5 5 6 10 12 11 5 7 5 7 7 2 5 6 11 10 9 9 6 4 10 9 40 36 20 1 -1 6 13 21 30 9 6 35 37 36 23 19 17 11 9 10 9
10 8 7 10 7 7 9 8 8 4 4 4 3 8 14 8 8 8 9 8 3 5 9 41 41 18 14 -1 4 5 11 14 23 21 14 10 39 51 20 18 22 15 9 4 14
4 3 5 7 9 7 8 7 6 5 4 8 10 10 5 7 8 9 8 7 7 10 45 36 6 5 24 26 16 11 12 20 24 13 20 24 42 38 21 21 14 14 18 10 12
6 2 4 2 4 5 5 6 6 6 7 13 -1 13 11 9 6 9 10 6 9 26 47 9 5 7 16 9 10 4 23 26 29 32 14 28 40 27 31 3 19 15 -4 32 -5
7 6 8 6 9 5 4 4 5 5 7 -6 15 6 7 8 10 8 6 8 16 36 26 8 7 22 -1 5 13 8 26 24 21 4 7 35 15 17 38 3 32 10 -4 5 31
7 10 8 6 6 8 10 7 6 6 7 24 6 6 10 12 6 7 10 7 23 37 24 12 3 18 0 25 16 27 19 12 20 8 13 10 17 16 31 -6 33 9 7 6 16
3 5 10 8 10 9 6 9 7 9 5 4 9 10 12 9 7 9 5 15 21 40 12 8 8 12 8 33 13 28 16 12 -7 6 26 11 30 22 6 21 24 15 14 17 -12
8 6 6 8 7 8 7 5 8 11 10 11 10 11 8 9 10 10 10 24 31 28 11 8 8 12 2 31 25 17 5 16 6 12 30 -0 39 34 -3 5 38 12 -6 8 12
9 8 9 9 8 10 8 8 15 18 15 12 11 7 10 10 11 9 6 17 29 31 5 7 6 21 15 2 10 6 18 7 7 -16 19 -9 29 23 24 9 9 29 21 18 2
4 11 11 11 15 13 15 19 21 17 11 9 11 12 10 12 10 9 12 28 24 21 12 7 4 10 5 7 15 7 13 16 15 19 9 37 7 30 7 15 9 2 27 19 15
13 15 12 15 19 17 17 17 10 10 15 11 6 9 9 13 11 12 21 28 28 22 10 11 6 12 20 2 16 6 -6 16 14 9 -1 -1 26 17 10 7 8 20 20 16 18
13 11 17 16 8 10 7 12 8 1 5 8 6 8 9 10 13 18 17 16 13 17 18 13 7 4 16 13 8 3 18 1 21 13 14 21 28 22 19 12 8 17 -14 20 8
13 12 9 3 6 8 14 6 1 -2 9 0 2 13 8 11 11 12 9 22 16 9 12 14 12 14 3 21 11 10 9 7 3 22 15 12 20 8 14 12 8 8 7 33 -4
10 5 9 -1 5 -4 6 5 -3 4 3 1 9 12 10 9 13 15 19 31 18 8 12 11 16 10 15 4 18 9 11 13 -1 7 21 23 5 8 11 10 10 11 12 9 4
11 2 4 3 7 -2 6 2 9 4 1 8 11 9 6 12 15 14 16 32 18 5 17 15 13 5 18 16 15 13 10 10 11 6 7 4 21 6 9 10 10 7 12 17 14
7 7 4 9 11 8 7 5 6 5 6 8 8 10 12 11 13 13 19 27 24 1 8 14 17 2 11 13 3 7 14 4 10 9 -1 9 4 7 7 9 13 13 9 12 12
1 -0 5 2 2 5 7 10 8 6 6 7 10 11 11 12 15 12 19 27 25 4 5 10 9 15 5 5 14 9 19 13 12 10 15 5 13 2 5 4 1 6 10 15 11
6 0 3 2 8 9 7 7 7 8 6 10 12 14 7 13 13 14 21 25 24 3 -4 7 15 11 9 6 7 13 7 3 13 17 0 9 11 9 9 19 19 14 12 19 6
2 6 5 5 14 13 7 11 9 6 13 12 13 11 12 13 15 11 20 26 21 1 5 3 24 9 10 7 10 10 9 9 3 8 20 -2 -1 8 3 15 13 14 19 11 18
Height
5814 5811 5808 5806 5803 5800 5797 5793 5790 5788 5785 5781 5778 5776 5773 5770 5766 5763 5760 5757 5754 5751 5748 5745 5743 5739 5736 5732 5729 5727 5726 5727 5726 5727 5729 5731 5735 5737 5740 5743 5745 5750 5755 5760 5761
5809 5806 5803 5800 5797 5794 5791 5788 5785 5783 5780 5776 5773 5769 5765 5762 5759 5756 5752 5749 5745 5742 5739 5735 5730 5726 5722 5719 5712 5709 5710 5706 5707 5707 5709 5712 5718 5722 5727 5730 5736 5739 5743 5750 5753
5804 5801 5798 5795 5792 5789 5786 5782 5779 5777 5773 5770 5766 5761 5757 5753 5750 5747 5743 5739 5736 5731 5727 5723 5718 5713 5707 5699 5695 5691 5688 5685 5686 5684 5687 5690 5696 5703 5711 5717 5721 5727 5731 5738 5744
5799 5796 5792 5789 5786 5783 5780 5776 5773 5770 5767 5763 5759 5754 5749 5745 5743 5737 5733 5728 5723 5719 5713 5707 5701 5695 5690 5682 5675 5664 5661 5657 5661 5657 5661 5667 5675 5683 5694 5704 5708 5714 5719 5726 5733
5795 5791 5787 5783 5779 5776 5773 5769 5766 5763 5759 5755 5750 5746 5742 5738 5734 5729 5723 5717 5712 5705 5698 5691 5683 5674 5666 5657 5648 5636 5624 5623 5621 5626 5633 5641 5651 5661 5678 5686 5691 5698 5707 5715 5721
5790 5786 5781 5777 5773 5770 5767 5762 5759 5755 5751 5747 5743 5739 5735 5731 5725 5719 5712 5705 5698 5691 5682 5673 5662 5650 5640 5629 5612 5602 5591 5592 5591 5593 5599 5605 5626 5635 5659 5665 5674 5682 5693 5701 5709
5785 5781 5777 5773 5769 5765 5761 5757 5753 5749 5745 5741 5737 5733 5727 5722 5715 5708 5700 5693 5685 5676 5666 5653 5641 5626 5611 5599 5592 5584 5578 5575 5578 5572 5570 5579 5587 5613 5636 5643 5656 5667 5677 5687 5697
5781 5777 5773 5769 5765 5760 5756 5751 5747 5743 5739 5734 5730 5725 5719 5712 5704 5697 5688 5677 5669 5660 5650 5635 5621 5605 5592 5586 5581 5573 5567 5562 5567 5558 5560 5558 5562 5594 5611 5622 5640 5653 5664 5674 5686
5778 5774 5770 5766 5761 5755 5750 5746 5742 5737 5732 5727 5723 5716 5710 5702 5693 5683 5676 5667 5654 5642 5630 5617 5602 5590 5583 5578 5574 5566 5560 5554 5553 5550 5548 5545 5550 5574 5586 5601 5620 5639 5651 5662 5673
5773 5770 5766 5761 5757 5751 5745 5740 5736 5732 5726 5720 5715 5708 5699 5692 5683 5672 5662 5653 5643 5628 5613 5600 5589 5583 5577 5571 5566 5560 5552 5548 5543 5543 5537 5537 5541 5557 5573 5587 5603 5624 5639 5650 5660
5769 5764 5760 5755 5751 5746 5742 5735 5730 5726 5720 5714 5706 5697 5690 5680 5671 5660 5650 5639 5627 5617 5600 5589 5584 5578 5571 5564 5560 5553 5546 5539 5537 5534 5530 5531 5534 5549 5563 5576 5592 5609 5625 5638 5649
5765 5760 5755 5750 5745 5740 5734 5728 5723 5717 5710 5704 5697 5688 5680 5671 5662 5650 5640 5629 5616 5603 5591 5585 5580 5573 5566 5561 5556 5549 5541 5535 5532 5529 5527 5527 5532 5544 5554 5568 5586 5603 5617 5628 5641
5761 5756 5750 5745 5740 5735 5728 5722 5716 5709 5704 5697 5688 5680 5672 5662 5652 5642 5632 5619 5607 5593 5585 5581 5576 5569 5563 5558 5550 5546 5539 5535 5533 5530 5529 5528 5534 5542 5554 5570 5581 5595 5610 5622 5632
5755 5750 5745 5740 5735 5728 5723 5717 5709 5702 5695 5689 5680 5671 5662 5652 5644 5634 5622 5612 5599 5589 5580 5578 5573 5567 5561 5553 5547 5543 5540 5538 5538 5535 5534 5533 5540 5546 5556 5567 5579 5591 5602 5612 5626
5750 5745 5739 5732 5727 5721 5716 5709 5702 5695 5687 5681 5672 5662 5654 5648 5637 5626 5617 5603 5591 5582 5579 5575 5571 5565 5559 5551 5547 5544 5543 5543 5540 5538 5538 5540 5544 5550 5558 5568 5577 5585 5595 5605 5617
5742 5737 5733 5726 5721 5715 5709 5702 5696 5690 5680 5674 5665 5657 5647 5638 5629 5618 5608 5596 5585 5578 5576 5573 5569 5564 5559 5552 5549 5547 5547 5546 5545 5544 5544 5546 5547 5552 5559 5567 5574 5583 5591 5601 5610
5736 5731 5725 5719 5715 5708 5702 5696 5691 5682 5676 5668 5660 5651 5642 5632 5622 5612 5602 5591 5583 5578 5574 5572 5568 5565 5561 5557 5554 5552 5551 5550 5550 5548 5549 5548 5551 5556 5562 5569 5577 5584 5590 5598 5606
5728 5724 5718 5713 5708 5702 5695 5690 5684 5678 5669 5661 5653 5645 5637 5627 5617 5606 5595 5585 5577 5574 5572 5570 5568 5565 5562 5559 5557 5556 5554 5553 5551 5552 5552 5552 5556 5560 5565 5570 5576 5582 5587 5594 5602
5720 5716 5712 5706 5701 5696 5690 5684 5677 5671 5665 5658 5650 5641 5632 5622 5612 5602 5591 5582 5577 5573 5571 5569 5567 5565 5562 5560 5560 5557 5557 5555 5554 5554 5555 5557 5558 5561 5565 5570 5575 5579 5585 5593 5602
5715 5710 5705 5701 5696 5691 5686 5680 5673 5667 5660 5653 5645 5637 5626 5617 5607 5597 5587 5579 5573 5572 5569 5567 5566 5564 5562 5561 5560 5559 5559 5559 5557 5556 5556 5558 5560 5563 5566 5571 5576 5579 5584 5590 5600
5709 5705 5701 5697 5692 5686 5681 5675 5669 5663 5656 5648 5640 5631 5622 5612 5603 5594 5585 5578 5574 5570 5568 5566 5565 5565 5563 5561 5560 5560 5560 5560 5560 5559 5558 5559 5563 5565 5569 5573 5576 5580 5585 5590 5596
5703 5699 5695 5691 5688 5681 5676 5671 5666 5659 5652 5644 5635 5626 5617 5609 5600 5591 5584 5575 5573 5571 5568 5565 5564 5563 5563 5562 5561 5560 5561 5561 5562 5563 5562 5564 5567 5568 5572 5575 5579 5582 5586 5590 5594
5697 5693 5690 5686 5682 5677 5671 5667 5661 5655 5647 5638 5630 5622 5614 5606 5599 5589 5581 5575 5572 5570 5567 5565 5565 5564 5563 5563 5561 5561 5561 5562 5563 5564 5565 5567 5569 5571 5573 5576 5579 5582 5586 5590 5594
5692 5689 5686 5682 5677 5672 5667 5662 5655 5649 5642 5634 5627 5618 5610 5603 5594 5587 5579 5573 5570 5570 5568 5566 5565 5564 5564 5562 5562 5562 5562 5563 5564 5565 5566 5568 5570 5572 5574 5575 5578 5581 5584 5587 5590
5687 5685 5681 5678 5673 5668 5663 5657 5651 5645 5638 5630 5622 5615 5607 5600 5592 5584 5577 5572 5570 5569 5568 5567 5565 5565 5564 5563 5562 5562 5563 5563 5563 5565 5567 5568 5569 5571 5573 5574 5576 5578 5580 5582 5584
5682 5678 5676 5673 5668 5663 5657 5653 5646 5640 5634 5626 5619 5612 5604 5597 5590 5582 5575 5571 5570 5569 5568 5566 5565 5564 5563 5563 5563 5562 5563 5563 5564 5564 5565 5567 5568 5569 5571 5571 5572 5573 5574 5575 5578
5674 5671 5669 5666 5661 5657 5653 5648 5642 5635 5629 5621 5615 5608 5602 5595 5587 5580 5574 5570 5569 5569 5567 5565 5563 5563 5563 5562 5562 5563 5562 5562 5563 5564 5565 5566 5567 5568 5568 5569 5569 5570 5570 5571 5572